Alexander City, AL

1:49 PM CST on November 20, 2017 (GMT -0600)
Russell

Weather History for KALX - October, 2012

Change the Weather History Date:

Wednesday, October 24, 2012

  Actual Average (KAUO) Record (KAUO)
Temperature  
Mean Temperature 68 °F -  
Max Temperature 81 °F 73 °F 88 °F (1984)
Min Temperature 54 °F 47 °F 32 °F (1962)
Cooling Degree Days 2    
Growing Degree Days 18 (Base 50)    
Moisture  
Dew Point 55 °F    
Average Humidity 71    
Maximum Humidity 88    
Minimum Humidity 40    
Precipitation  
Precipitation 0.00 in - - ()
Sea Level Pressure  
Sea Level Pressure 30.12 in    
Wind  
Wind Speed 0 mph (East)    
Max Wind Speed 5 mph    
Max Gust Speed -    
Visibility 10 miles    
Events      
Averages and records for this station are not official NWS values.
T = Trace of Precipitation, MM = Missing Value Source: NWS Daily Summary

Daily Weather History Graph

Daily Weather History Graph

Search for Another Location

Airport or City:

Trip Planner

Search our weather history database for the weather conditions in past years. The results will help you decide how hot, cold, wet, or windy it might be!

Date:

Astronomy

Oct. 24, 2012 Rise Set
Actual Time 6:55 AM CDT 5:59 PM CDT
Civil Twilight 6:30 AM CDT 6:25 PM CDT
Nautical Twilight 6:01 AM CDT 6:54 PM CDT
Astronomical Twilight 5:32 AM CDT 7:22 PM CDT
Moon 3:02 PM CDT (10/24) 2:05 AM CDT (10/24)
Length of Visible Light 11h 54m
Length of Day
11h 04m
Waxing Gibbous, 76% of the Moon is Illuminated
Oct 24
Waxing Gibbous
Oct 29
Full
Nov 6
Last Quarter
Nov 13
New
Nov 20
First Quarter

Hourly Weather History & Observations

Time (CDT) Temp. Heat Index Dew Point Humidity Pressure Visibility Wind Dir Wind Speed Gust Speed Precip Events Conditions
12:15 AM 57.2 °F - 53.1 °F 86% 30.12 in 10.0 mi Calm Calm - N/A   Clear
12:35 AM 54.7 °F - 50.2 °F 85% 30.12 in 10.0 mi Calm Calm - N/A   Clear
12:55 AM 54.7 °F - 50.4 °F 85% 30.12 in 10.0 mi Calm Calm - N/A   Clear
1:15 AM 54.7 °F - 50.5 °F 86% 30.12 in 10.0 mi Calm Calm - N/A   Clear
1:35 AM 54.7 °F - 51.1 °F 88% 30.13 in 10.0 mi Calm Calm - N/A   Clear
1:55 AM 56.1 °F - 51.3 °F 84% 30.12 in 10.0 mi Calm Calm - N/A   Clear
2:15 AM 56.8 °F - 51.4 °F 82% 30.12 in 10.0 mi Calm Calm - N/A   Clear
2:35 AM 54.7 °F - 49.5 °F 83% 30.12 in 10.0 mi Calm Calm - N/A   Clear
2:55 AM 55.4 °F - 49.6 °F 81% 30.12 in 10.0 mi Calm Calm - N/A   Clear
3:15 AM 54.7 °F - 49.5 °F 83% 30.12 in 10.0 mi Calm Calm - N/A   Clear
3:35 AM 54.7 °F - 49.1 °F 81% 30.12 in 10.0 mi Calm Calm - N/A   Clear
3:55 AM 54.7 °F - 49.1 °F 81% 30.13 in 10.0 mi Calm Calm - N/A   Clear
4:15 AM 54.7 °F - 50.4 °F 85% 30.13 in 10.0 mi Calm Calm - N/A   Clear
4:35 AM 54.7 °F - 50.9 °F 87% 30.13 in 10.0 mi Calm Calm - N/A   Clear
4:55 AM 54.7 °F - 50.0 °F 84% 30.14 in 10.0 mi Calm Calm - N/A   Clear
5:15 AM 54.7 °F - 49.8 °F 84% 30.14 in 10.0 mi Calm Calm - N/A   Clear
5:35 AM 54.7 °F - 49.3 °F 82% 30.15 in 10.0 mi Calm Calm - N/A   Clear
5:55 AM 54.7 °F - 49.3 °F 82% 30.16 in 10.0 mi Calm Calm - N/A   Clear
6:15 AM 54.7 °F - 49.6 °F 83% 30.16 in 10.0 mi Calm Calm - N/A   Clear
6:35 AM 54.7 °F - 49.5 °F 83% 30.17 in 10.0 mi Calm Calm - N/A   Clear
6:55 AM 54.7 °F - 49.8 °F 84% 30.17 in 10.0 mi Calm Calm - N/A   Clear
7:15 AM 54.7 °F - 50.0 °F 84% 30.17 in 10.0 mi Calm Calm - N/A   Clear
7:35 AM 54.7 °F - 49.3 °F 82% 30.18 in 10.0 mi Calm Calm - N/A   Clear
7:55 AM 56.8 °F - 50.7 °F 80% 30.18 in 10.0 mi Calm Calm - N/A   Clear
8:15 AM 57.2 °F - 50.0 °F 77% 30.18 in 10.0 mi Calm Calm - N/A   Clear
8:55 AM 63.0 °F - 52.3 °F 68% 30.19 in 10.0 mi East 3.5 mph - N/A   Clear
9:35 AM 69.8 °F - 57.2 °F 64% 30.19 in 10.0 mi Calm Calm - N/A   Clear
9:55 AM 69.8 °F - 56.8 °F 63% 30.19 in 10.0 mi East 3.5 mph - N/A   Clear
10:15 AM 71.6 °F - 57.7 °F 62% 30.18 in 10.0 mi Calm Calm - N/A   Clear
10:35 AM 74.8 °F - 60.3 °F 60% 30.18 in 10.0 mi Calm Calm - N/A   Clear
10:55 AM 74.8 °F - 59.2 °F 58% 30.17 in 10.0 mi Calm Calm - N/A   Clear
11:15 AM 77.0 °F - 60.1 °F 56% 30.16 in 10.0 mi Calm Calm - N/A   Clear
11:35 AM 77.4 °F - 59.9 °F 55% 30.16 in 10.0 mi Calm Calm - N/A   Clear
11:55 AM 77.4 °F - 59.0 °F 53% 30.16 in 10.0 mi Calm Calm - N/A   Clear
12:15 PM 79.9 °F - 59.2 °F 49% 30.15 in 10.0 mi South 3.5 mph - N/A   Mostly Cloudy
12:35 PM 79.9 °F - 57.6 °F 46% 30.13 in 10.0 mi NE 4.6 mph - N/A   Mostly Cloudy
12:55 PM 77.4 °F - 57.4 °F 50% 30.12 in 10.0 mi East 3.5 mph - N/A   Mostly Cloudy
1:15 PM 79.3 °F - 57.6 °F 47% 30.11 in 10.0 mi SE 4.6 mph - N/A   Scattered Clouds
1:35 PM 79.9 °F - 56.7 °F 45% 30.10 in 10.0 mi SSE 4.6 mph - N/A   Clear
1:55 PM 80.8 °F 80.9 °F 56.8 °F 44% 30.09 in 10.0 mi Calm Calm - N/A   Scattered Clouds
2:15 PM 79.9 °F - 55.9 °F 44% 30.09 in 10.0 mi Calm Calm - N/A   Scattered Clouds
2:35 PM 79.9 °F - 57.2 °F 46% 30.08 in 10.0 mi Calm Calm - N/A   Clear
2:55 PM 81.5 °F 81.3 °F 56.5 °F 42% 30.07 in 10.0 mi Calm Calm - N/A   Clear
3:15 PM 81.1 °F 81.1 °F 56.5 °F 43% 30.07 in 10.0 mi West 3.5 mph - N/A   Mostly Cloudy
3:35 PM 80.6 °F 80.5 °F 55.4 °F 42% 30.07 in 10.0 mi Calm Calm - N/A   Scattered Clouds
3:55 PM 81.0 °F 80.6 °F 54.7 °F 40% 30.07 in 10.0 mi Calm Calm - N/A   Clear
4:15 PM 81.1 °F 80.8 °F 54.5 °F 40% 30.06 in 10.0 mi NE 3.5 mph - N/A   Clear
4:35 PM 81.0 °F 80.7 °F 55.2 °F 41% 30.06 in 10.0 mi Calm Calm - N/A   Clear
4:55 PM 80.1 °F 80.1 °F 54.7 °F 41% 30.06 in 10.0 mi NE 3.5 mph - N/A   Clear
5:15 PM 79.9 °F - 54.9 °F 42% 30.06 in 10.0 mi ENE 3.5 mph - N/A   Clear
5:35 PM 79.2 °F - 58.3 °F 49% 30.06 in 10.0 mi Calm Calm - N/A   Clear
5:55 PM 74.8 °F - 61.0 °F 62% 30.06 in 10.0 mi Calm Calm - N/A   Clear
6:15 PM 70.2 °F - 59.7 °F 69% 30.06 in 7.0 mi Calm Calm - N/A   Clear
6:35 PM 69.8 °F - 60.8 °F 73% 30.06 in 10.0 mi Calm Calm - N/A   Clear
6:55 PM 69.8 °F - 62.1 °F 76% 30.07 in 10.0 mi Calm Calm - N/A   Clear
7:15 PM 67.3 °F - 60.8 °F 80% 30.07 in 10.0 mi Calm Calm - N/A   Clear
7:35 PM 64.8 °F - 59.4 °F 83% 30.07 in 10.0 mi Calm Calm - N/A   Clear
7:55 PM 62.2 °F - 57.4 °F 84% 30.08 in 10.0 mi Calm Calm - N/A   Clear
8:15 PM 63.9 °F - 59.4 °F 85% 30.08 in 10.0 mi Calm Calm - N/A   Clear
8:35 PM 62.2 °F - 57.7 °F 85% 30.08 in 10.0 mi Calm Calm - N/A   Clear
8:55 PM 62.2 °F - 57.9 °F 86% 30.08 in 10.0 mi Calm Calm - N/A   Clear
9:15 PM 61.0 °F - 56.8 °F 86% 30.08 in 10.0 mi Calm Calm - N/A   Clear
9:35 PM 60.6 °F - 56.7 °F 87% 30.09 in 10.0 mi Calm Calm - N/A   Clear
9:55 PM 59.9 °F - 55.9 °F 87% 30.09 in 10.0 mi Calm Calm - N/A   Clear
10:15 PM 59.9 °F - 55.9 °F 87% 30.09 in 10.0 mi Calm Calm - N/A   Clear
10:35 PM 59.9 °F - 55.9 °F 87% 30.09 in 10.0 mi Calm Calm - N/A   Clear
10:55 PM 59.9 °F - 55.6 °F 86% 30.09 in 10.0 mi Calm Calm - N/A   Clear
11:15 PM 59.9 °F - 55.9 °F 87% 30.09 in 10.0 mi Calm Calm - N/A   Clear
11:35 PM 59.9 °F - 56.3 °F 88% 30.09 in 10.0 mi Calm Calm - N/A   Clear
11:55 PM 57.7 °F - 54.3 °F 88% 30.08 in 10.0 mi Calm Calm - N/A   Clear